FW6305 Weather Reports


Display with metric or nautical units.
time (UTC)temp
F
wind
direction
speed
MPH
gust
MPH
rain 1hr
in
rain 24hr
in
rain mn
in
humidity
%
barometer
mb
20260901231030 74 257 4.0 13.0 0.00 0.00 0.00 45 1014.6
20260901230534 74 277 5.0 11.0 0.00 0.00 0.00 45 1014.7
20260901230055 74 204 4.0 11.0 0.00 0.00 0.00 44 1014.9
20260901225535 74 240 4.0 10.0 0.00 0.00 0.00 45 1014.9
20260901225032 74 222 4.0 13.0 0.00 0.00 0.00 44 1015.0
20260901224557 74 147 3.0 16.0 0.00 0.00 0.00 45 1014.7
20260901224030 75 203 6.0 16.0 0.00 0.00 0.00 45 1014.9
20260901223532 75 208 2.0 9.0 0.00 0.00 0.00 45 1014.8
20260901223057 74 215 3.0 10.0 0.00 0.00 0.00 46 1014.9
20260901222533 74 215 4.0 10.0 0.00 0.00 0.00 45 1015.0
20260901222032 74 259 3.0 10.0 0.00 0.00 0.00 46 1014.9
20260901221557 74 215 4.0 12.0 0.00 0.00 0.00 47 1015.2
20260901221032 74 246 4.0 14.0 0.00 0.00 0.00 47 1015.1
20260901220531 74 241 3.0 14.0 0.00 0.00 0.00 47 1015.1
20260901220058 74 230 5.0 14.0 0.00 0.00 0.00 47 1015.4
20260901215533 74 251 4.0 14.0 0.00 0.00 0.00 48 1015.1
20260901215034 74 219 5.0 14.0 0.00 0.00 0.00 48 1015.2
20260901214554 75 259 3.0 14.0 0.00 0.00 0.00 47 1015.3
20260901214033 75 238 3.0 11.0 0.00 0.00 0.00 47 1015.4
20260901213534 76 269 4.0 12.0 0.00 0.00 0.00 45 1015.3
20260901213049 75 226 4.0 12.0 0.00 0.00 0.00 44 1015.3
20260901212532 75 258 4.0 14.0 0.00 0.00 0.00 47 1015.3
20260901212030 74 275 4.0 14.0 0.00 0.00 0.00 48 1015.3
20260901211546 75 254 4.0 11.0 0.00 0.00 0.00 46 1015.2
20260901211033 74 306 3.0 11.0 0.00 0.00 0.00 45 1015.3
20260901210533 74 252 4.0 11.0 0.00 0.00 0.00 45 1015.4
20260901210055 75 265 3.0 9.0 0.00 0.00 0.00 45 1015.3
20260901205534 75 243 3.0 13.0 0.00 0.00 0.00 44 1015.2
20260901205030 74 208 5.0 13.0 0.00 0.00 0.00 45 1015.3
20260901204551 74 290 1.0 9.0 0.00 0.00 0.00 43 1015.2
20260901204032 75 240 4.0 9.0 0.00 0.00 0.00 43 1015.4
20260901203531 75 288 4.0 10.0 0.00 0.00 0.00 43 1015.3
20260901203051 75 260 2.0 10.0 0.00 0.00 0.00 43 1015.5
20260901202532 74 253 3.0 11.0 0.00 0.00 0.00 43 1015.5
20260901202035 73 209 3.0 11.0 0.00 0.00 0.00 46 1015.7
20260901201546 73 252 4.0 12.0 0.00 0.00 0.00 45 1015.7
20260901201033 73 286 3.0 12.0 0.00 0.00 0.00 46 1015.8
20260901200530 73 200 3.0 14.0 0.00 0.00 0.00 47 1015.9
20260901195532 72 165 4.0 10.0 0.00 0.00 0.00 47 1015.9
20260901195034 72 217 4.0 10.0 0.00 0.00 0.00 45 1015.9
20260901194602 73 283 3.0 12.0 0.00 0.00 0.00 46 1015.8
20260901194033 73 221 3.0 13.0 0.00 0.00 0.00 46 1015.9
20260901193531 72 259 5.0 13.0 0.00 0.00 0.00 48 1016.0
20260901193108 72 234 4.0 13.0 0.00 0.00 0.00 50 1016.0
20260901192530 71 207 5.0 13.0 0.00 0.00 0.00 50 1016.1
20260901192030 71 211 4.0 13.0 0.00 0.00 0.00 51 1016.1
20260901191552 71 218 4.0 13.0 0.00 0.00 0.00 51 1016.1
20260901191032 71 212 5.0 13.0 0.00 0.00 0.00 50 1016.1
20260901190530 72 265 2.0 11.0 0.00 0.00 0.00 50 1016.1
20260901190107 72 252 3.0 11.0 0.00 0.00 0.00 50 1016.2
20260901185534 71 163 3.0 9.0 0.00 0.00 0.00 51 1016.0
20260901185032 71 218 3.0 11.0 0.00 0.00 0.00 53 1016.1
20260901184554 70 243 3.0 11.0 0.00 0.00 0.00 53 1016.1
20260901184035 71 239 4.0 10.0 0.00 0.00 0.00 53 1016.2
20260901183532 71 211 4.0 11.0 0.00 0.00 0.00 52 1016.2
20260901183054 71 226 3.0 11.0 0.00 0.00 0.00 53 1016.1
20260901182532 70 169 3.0 9.0 0.00 0.00 0.00 54 1016.2
20260901182029 70 231 4.0 9.0 0.00 0.00 0.00 57 1016.2
20260901181550 68 324 3.0 10.0 0.00 0.00 0.00 58 1016.1
20260901181031 69 223 4.0 10.0 0.00 0.00 0.00 58 1016.2
20260901180531 69 214 3.0 8.0 0.00 0.00 0.00 58 1016.2
20260901180054 69 244 3.0 12.0 0.00 0.00 0.00 59 1016.0
20260901175536 69 245 4.0 12.0 0.00 0.00 0.00 58 1016.0
20260901175030 69 252 4.0 10.0 0.00 0.00 0.00 57 1016.0
20260901174551 69 198 2.0 10.0 0.00 0.00 0.00 58 1015.9
20260901174032 69 205 3.0 11.0 0.00 0.00 0.00 58 1015.8
20260901173532 69 252 5.0 11.0 0.00 0.00 0.00 57 1015.8
20260901173050 69 263 2.0 9.0 0.00 0.00 0.00 59 1015.8
20260901172530 69 249 4.0 12.0 0.00 0.00 0.00 58 1015.7
20260901172032 69 229 3.0 12.0 0.00 0.00 0.00 57 1015.8
20260901171556 69 213 2.0 11.0 0.00 0.00 0.00 58 1015.8
20260901171029 69 220 2.0 12.0 0.00 0.00 0.00 59 1015.7
20260901170531 68 242 3.0 12.0 0.00 0.00 0.00 58 1015.5
20260901170054 67 208 3.0 12.0 0.00 0.00 0.00 61 1015.6
20260901165530 67 194 5.0 12.0 0.00 0.00 0.00 61 1015.5
20260901165034 67 208 4.0 11.0 0.00 0.00 0.00 61 1015.6
20260901164555 67 205 3.0 10.0 0.00 0.00 0.00 62 1015.5
20260901164031 67 223 3.0 10.0 0.00 0.00 0.00 61 1015.4
20260901163533 67 186 4.0 10.0 0.00 0.00 0.00 62 1015.3
20260901163059 68 255 3.0 9.0 0.00 0.00 0.00 62 1015.6
20260901162531 67 221 4.0 10.0 0.00 0.00 0.00 62 1015.5
20260901162032 67 190 3.0 10.0 0.00 0.00 0.00 62 1015.6
20260901161553 66 179 1.0 9.0 0.00 0.00 0.00 64 1015.4
20260901161032 66 196 3.0 10.0 0.00 0.00 0.00 64 1015.3
20260901160532 65 209 2.0 10.0 0.00 0.00 0.00 65 1015.2
20260901160055 65 196 4.0 10.0 0.00 0.00 0.00 64 1015.2
20260901155532 65 214 4.0 10.0 0.00 0.00 0.00 66 1015.1
20260901155030 65 226 5.0 10.0 0.00 0.00 0.00 65 1015.0
20260901154549 64 206 3.0 9.0 0.00 0.00 0.00 67 1015.1
20260901154036 64 182 3.0 9.0 0.00 0.00 0.00 68 1015.0
20260901153532 64 224 3.0 12.0 0.00 0.00 0.00 67 1014.9
20260901153055 64 236 3.0 12.0 0.00 0.00 0.00 68 1015.0
20260901152531 64 194 4.0 12.0 0.00 0.00 0.00 69 1014.9
20260901152031 64 178 4.0 10.0 0.00 0.00 0.00 69 1014.8
20260901151604 64 192 3.0 10.0 0.00 0.00 0.00 68 1014.7
20260901151030 63 208 2.0 9.0 0.00 0.00 0.00 68 1014.6
20260901150532 63 219 4.0 9.0 0.00 0.00 0.00 69 1014.6
20260901150056 63 223 3.0 10.0 0.00 0.00 0.00 69 1014.6
20260901145532 63 258 4.0 10.0 0.00 0.00 0.00 69 1014.5
20260901145033 63 216 3.0 9.0 0.00 0.00 0.00 70 1014.4
20260901144555 63 201 3.0 9.0 0.00 0.00 0.00 71 1014.5
20260901144031 62 196 3.0 9.0 0.00 0.00 0.00 71 1014.4
20260901143532 62 210 2.0 7.0 0.00 0.00 0.00 72 1014.3
20260901143108 62 205 2.0 8.0 0.00 0.00 0.00 72 1014.3
20260901142531 62 204 3.0 10.0 0.00 0.00 0.00 72 1014.4
20260901142031 62 238 3.0 10.0 0.00 0.00 0.00 72 1014.1
20260901141547 62 185 2.0 9.0 0.00 0.00 0.00 72 1014.1
20260901141030 62 211 3.0 7.0 0.00 0.00 0.00 72 1014.2
20260901140533 62 204 2.0 11.0 0.00 0.00 0.00 72 1014.1
20260901140107 62 219 3.0 11.0 0.00 0.00 0.00 71 1014.0
20260901135532 61 200 3.0 11.0 0.00 0.00 0.00 72 1013.9
20260901135030 61 214 3.0 7.0 0.00 0.00 0.00 72 1014.0
20260901134551 61 0 2.0 9.0 0.00 0.00 0.00 73 1013.8
20260901134033 61 216 3.0 9.0 0.00 0.00 0.00 73 1013.8
20260901133531 61 213 2.0 7.0 0.00 0.00 0.00 73 1013.7
20260901133049 61 213 2.0 7.0 0.00 0.00 0.00 74 1013.6
20260901132531 61 213 2.0 7.0 0.00 0.00 0.00 73 1013.6
20260901132034 61 213 2.0 7.0 0.00 0.00 0.00 74 1013.6
20260901131548 61 211 1.0 7.0 0.00 0.00 0.00 75 1013.5
20260901131031 61 214 2.0 7.0 0.00 0.00 0.00 76 1013.5
20260901130534 61 215 2.0 7.0 0.00 0.00 0.00 76 1013.6
20260901130051 61 217 2.0 7.0 0.00 0.00 0.00 77 1013.8
20260901125531 61 218 1.0 7.0 0.00 0.00 0.00 77 1013.7
20260901125031 61 219 2.0 7.0 0.00 0.00 0.00 78 1013.6
20260901124551 61 221 2.0 7.0 0.00 0.00 0.00 77 1013.6
20260901124031 61 220 2.0 7.0 0.00 0.00 0.00 78 1013.5
20260901123530 60 227 2.0 6.0 0.00 0.00 0.00 78 1013.6
20260901123054 60 215 1.0 6.0 0.00 0.00 0.00 77 1013.5
20260901122533 60 0 2.0 6.0 0.00 0.00 0.00 77 1013.4
20260901122031 61 214 1.0 7.0 0.00 0.00 0.00 77 1013.2
20260901121603 61 215 2.0 9.0 0.00 0.00 0.00 77 1013.2
20260901121032 61 217 1.0 9.0 0.00 0.00 0.00 76 1013.1
20260901120530 61 217 3.0 9.0 0.00 0.00 0.00 76 1013.1
20260901120048 61 215 3.0 10.0 0.00 0.00 0.00 76 1013.1
20260901115532 61 216 4.0 10.0 0.00 0.00 0.00 76 1013.3
20260901115031 61 250 2.0 9.0 0.00 0.00 0.00 76 1013.3
20260901114555 61 200 3.0 8.0 0.00 0.00 0.00 76 1013.3
20260901114035 61 227 2.0 7.0 0.00 0.00 0.00 75 1013.4
20260901113530 61 232 1.0 12.0 0.00 0.00 0.00 75 1013.4
20260901113100 61 248 4.0 12.0 0.00 0.00 0.00 76 1013.3
20260901112531 61 300 3.0 9.0 0.00 0.00 0.00 76 1013.2
20260901112031 61 252 3.0 10.0 0.00 0.00 0.00 76 1013.4
20260901111551 61 242 3.0 10.0 0.00 0.00 0.00 75 1013.4
20260901111033 61 252 2.0 8.0 0.00 0.00 0.00 75 1013.4
20260901110532 61 211 2.0 10.0 0.00 0.00 0.00 75 1013.4
20260901110109 61 219 2.0 10.0 0.00 0.00 0.00 74 1013.2
20260901105530 61 225 3.0 9.0 0.00 0.00 0.00 75 1013.2
20260901105033 61 240 4.0 9.0 0.00 0.00 0.00 75 1013.1
20260901104556 61 203 4.0 9.0 0.00 0.00 0.00 75 1013.1
20260901104033 61 207 4.0 9.0 0.00 0.00 0.00 75 1012.9
20260901103535 61 248 2.0 11.0 0.00 0.00 0.00 74 1013.0
20260901103100 61 202 4.0 11.0 0.00 0.00 0.00 75 1013.0
20260901102531 61 179 2.0 8.0 0.00 0.00 0.00 74 1012.9
20260901102032 61 211 3.0 11.0 0.00 0.00 0.00 74 1012.9
20260901101552 61 191 5.0 11.0 0.00 0.00 0.00 74 1013.0
20260901101031 61 234 3.0 9.0 0.00 0.00 0.00 73 1012.8
20260901100533 61 201 3.0 11.0 0.00 0.00 0.00 73 1012.8
20260901095533 61 209 4.0 14.0 0.00 0.00 0.00 73 1012.8
20260901095031 61 247 4.0 14.0 0.00 0.00 0.00 72 1012.7
20260901094559 61 256 5.0 11.0 0.00 0.00 0.00 72 1012.8
20260901094033 61 259 4.0 11.0 0.00 0.00 0.00 73 1012.9
20260901093534 61 198 3.0 9.0 0.00 0.00 0.00 73 1012.9
20260901093104 61 221 3.0 10.0 0.00 0.00 0.00 73 1013.0
20260901092535 61 239 4.0 10.0 0.00 0.00 0.00 73 1013.0
20260901092031 61 185 3.0 13.0 0.00 0.00 0.00 73 1013.0
20260901091558 61 210 4.0 18.0 0.00 0.00 0.00 72 1013.1
20260901091029 61 207 5.0 18.0 0.00 0.00 0.00 72 1013.0
20260901090530 61 202 6.0 17.0 0.00 0.00 0.00 72 1012.9
20260901090055 61 168 4.0 10.0 0.00 0.00 0.00 72 1012.9
20260901085531 61 217 4.0 10.0 0.00 0.00 0.00 72 1013.0
20260901085031 61 246 3.0 9.0 0.00 0.00 0.00 72 1013.0
20260901084555 61 250 4.0 10.0 0.00 0.00 0.00 72 1013.0
20260901084033 61 215 3.0 12.0 0.00 0.00 0.00 72 1012.9
20260901083532 61 248 5.0 13.0 0.00 0.00 0.00 72 1012.9
20260901083057 61 257 5.0 13.0 0.00 0.00 0.00 72 1012.9
20260901082532 61 221 5.0 11.0 0.00 0.00 0.00 72 1013.0
20260901082030 61 231 4.0 11.0 0.00 0.00 0.00 72 1013.1
20260901081548 61 204 3.0 11.0 0.00 0.00 0.00 71 1013.1
20260901081033 61 216 4.0 11.0 0.00 0.00 0.00 71 1013.0
20260901080533 61 211 3.0 12.0 0.00 0.00 0.00 71 1013.0
20260901080046 61 222 5.0 12.0 0.00 0.00 0.00 71 1013.1
20260901075533 61 261 5.0 11.0 0.00 0.00 0.00 71 1013.1
20260901075032 61 232 3.0 9.0 0.00 0.00 0.00 71 1013.1
20260901074547 61 171 3.0 9.0 0.00 0.00 0.00 71 1013.1
20260901074032 61 213 2.0 10.0 0.00 0.00 0.00 70 1013.1
20260901073532 62 212 2.0 10.0 0.00 0.00 0.00 70 1013.1
20260901073053 62 236 3.0 13.0 0.00 0.00 0.00 70 1013.0
20260901072533 62 240 3.0 13.0 0.00 0.00 0.00 70 1013.0
20260901072029 62 232 3.0 10.0 0.00 0.00 0.00 71 1013.0
20260901071547 62 236 3.0 9.0 0.00 0.00 0.00 71 1013.1
20260901071032 61 200 4.0 9.0 0.00 0.00 0.00 71 1013.0
20260901070531 61 244 3.0 10.0 0.00 0.00 0.00 71 1013.1
20260901065531 61 193 4.0 14.0 0.00 0.00 0.00 71 1013.0
20260901065034 61 242 4.0 14.0 0.00 0.00 0.00 71 1012.9
20260901064554 61 196 3.0 13.0 0.00 0.00 0.00 71 1013.1
20260901064035 61 204 4.0 13.0 0.00 0.00 0.00 71 1013.0
20260901063532 61 210 3.0 11.0 0.00 0.00 0.00 71 1013.0
20260901063053 61 242 4.0 13.0 0.00 0.00 0.00 71 1013.1
20260901062532 61 262 5.0 13.0 0.00 0.00 0.00 71 1013.1
20260901062032 61 213 4.0 13.0 0.00 0.00 0.00 71 1013.0
20260901061558 61 194 3.0 12.0 0.00 0.00 0.00 71 1013.3
20260901061030 61 225 4.0 12.0 0.00 0.00 0.00 71 1013.2
20260901060530 61 207 3.0 11.0 0.00 0.00 0.00 72 1013.3
20260901060049 61 196 3.0 14.0 0.00 0.00 0.00 72 1013.1
20260901055532 61 200 5.0 14.0 0.00 0.00 0.00 72 1013.3
20260901055032 61 249 6.0 12.0 0.00 0.00 0.00 71 1013.3
20260901054546 61 217 4.0 16.0 0.00 0.00 0.00 72 1013.2
20260901054031 61 211 6.0 16.0 0.00 0.00 0.00 72 1013.1
20260901053530 61 198 7.0 16.0 0.00 0.00 0.00 72 1013.1
20260901053105 61 262 5.0 14.0 0.00 0.00 0.00 72 1013.2
20260901052528 60 209 4.0 11.0 0.00 0.00 0.00 72 1013.1
20260901052031 61 240 3.0 11.0 0.00 0.00 0.00 72 1013.1
20260901051557 61 251 4.0 14.0 0.00 0.00 0.00 72 1013.1
20260901051037 61 232 5.0 14.0 0.00 0.00 0.00 72 1013.0
20260901050528 61 260 3.0 13.0 0.00 0.00 0.00 72 1013.0
20260901050051 61 183 4.0 13.0 0.00 0.00 0.00 72 1012.8
20260901045531 61 234 3.0 11.0 0.00 0.00 0.00 72 1012.9
20260901045031 61 244 3.0 11.0 0.00 0.00 0.00 72 1012.8
20260901044602 61 247 4.0 15.0 0.00 0.00 0.00 72 1012.9
20260901044029 61 211 5.0 15.0 0.00 0.00 0.00 72 1012.9
20260901043529 61 251 5.0 15.0 0.00 0.00 0.00 72 1012.8
20260901043104 61 230 5.0 12.0 0.00 0.00 0.00 71 1012.8
20260901042534 61 242 5.0 12.0 0.00 0.00 0.00 71 1012.9
20260901042029 61 179 4.0 12.0 0.00 0.00 0.00 71 1012.8
20260901041542 61 218 5.0 12.0 0.00 0.00 0.00 71 1012.8
20260901041032 61 227 4.0 13.0 0.00 0.00 0.00 71 1012.8
20260901040529 61 209 6.0 13.0 0.00 0.00 0.00 71 1012.7
20260901040052 61 186 6.0 15.0 0.00 0.00 0.00 71 1012.6
20260901035531 61 251 7.0 18.0 0.00 0.00 0.00 71 1012.6
20260901035029 61 190 6.0 18.0 0.00 0.00 0.00 72 1012.3
20260901034547 61 263 5.0 16.0 0.00 0.00 0.00 72 1012.5
20260901034032 61 204 6.0 16.0 0.00 0.00 0.00 72 1012.2
20260901033532 61 240 5.0 16.0 0.00 0.00 0.00 72 1012.0
20260901033044 61 207 4.0 14.0 0.00 0.00 0.00 71 1011.8
20260901032529 61 219 5.0 15.0 0.00 0.00 0.00 71 1011.6
20260901032029 61 253 7.0 15.0 0.00 0.00 0.00 71 1011.5
20260901031554 61 202 5.0 15.0 0.00 0.00 0.00 71 1011.5
20260901031031 61 220 5.0 15.0 0.00 0.00 0.00 71 1011.5
20260901030529 61 242 5.0 14.0 0.00 0.00 0.00 71 1011.5
20260901030053 61 210 5.0 13.0 0.00 0.00 0.00 71 1011.6
20260901025530 62 209 5.0 12.0 0.00 0.00 0.00 71 1011.7
20260901025031 62 281 4.0 12.0 0.00 0.00 0.00 70 1011.8
20260901024546 62 215 3.0 11.0 0.00 0.00 0.00 70 1011.7
20260901024031 62 250 3.0 13.0 0.00 0.00 0.00 70 1011.9
20260901023531 62 229 4.0 13.0 0.00 0.00 0.00 70 1011.9
20260901023055 62 159 3.0 8.0 0.00 0.00 0.00 69 1012.0
20260901022531 62 211 2.0 9.0 0.00 0.00 0.00 69 1011.9
20260901022033 62 259 3.0 9.0 0.00 0.00 0.00 69 1011.9
20260901021543 63 153 3.0 9.0 0.00 0.00 0.00 68 1011.9
20260901021032 63 272 3.0 9.0 0.00 0.00 0.00 68 1012.0
20260901020532 63 266 2.0 13.0 0.00 0.00 0.00 68 1011.9
20260901020055 63 261 4.0 13.0 0.00 0.00 0.00 68 1011.9
20260901015532 64 292 3.0 11.0 0.00 0.00 0.00 67 1011.9
20260901015028 64 265 3.0 10.0 0.00 0.00 0.00 67 1011.9
20260901014553 64 260 2.0 18.0 0.00 0.00 0.00 67 1012.0
20260901014031 64 266 4.0 19.0 0.00 0.00 0.00 67 1012.0
20260901013533 65 223 6.0 19.0 0.00 0.00 0.00 66 1012.1
20260901013053 65 223 2.0 13.0 0.00 0.00 0.00 65 1011.8
20260901012535 66 217 4.0 13.0 0.00 0.00 0.00 65 1011.8
20260901012028 66 249 4.0 12.0 0.00 0.00 0.00 65 1011.7
20260901011601 66 223 4.0 13.0 0.00 0.00 0.00 65 1011.8
20260901011032 66 281 6.0 16.0 0.00 0.00 0.00 64 1011.8
20260901010533 67 245 6.0 16.0 0.00 0.00 0.00 64 1011.8
20260901010051 67 232 6.0 14.0 0.00 0.00 0.00 64 1011.7
20260901005534 67 252 7.0 17.0 0.00 0.00 0.00 63 1011.6
20260901005031 67 258 7.0 19.0 0.00 0.00 0.00 64 1011.6
20260901004555 67 240 6.0 19.0 0.00 0.00 0.00 64 1011.6
20260901004033 67 269 9.0 19.0 0.00 0.00 0.00 63 1011.6
20260901003532 68 248 6.0 15.0 0.00 0.00 0.00 62 1011.5
20260901003046 68 236 6.0 17.0 0.00 0.00 0.00 63 1011.5
20260901002532 67 248 5.0 17.0 0.00 0.00 0.00 64 1011.5
20260901002028 67 254 7.0 17.0 0.00 0.00 0.00 63 1011.7
20260901001551 67 223 5.0 14.0 0.00 0.00 0.00 64 1011.6
20260901001032 67 230 7.0 19.0 0.00 0.00 0.00 64 1011.6
20260901000533 67 215 8.0 19.0 0.00 0.00 0.00 63 1011.7
20260901000049 67 223 10.0 19.0 0.00 0.00 0.00 63 1011.8
20260831235531 67 216 9.0 18.0 0.00 0.00 0.00 62 1011.9
20260831235029 68 208 8.0 18.0 0.00 0.00 0.00 62 1012.0
20260831234551 69 302 7.0 14.0 0.00 0.00 0.00 61 1011.9
20260831234034 69 207 7.0 17.0 0.00 0.00 0.00 61 1011.7
20260831233531 68 233 7.0 20.0 0.00 0.00 0.00 62 1011.7
20260831233049 68 254 10.0 20.0 0.00 0.00 0.00 62 1011.7
20260831232530 69 296 8.0 22.0 0.00 0.00 0.00 61 1011.9
20260831232028 69 246 9.0 22.0 0.00 0.00 0.00 61 1012.0
20260831231545 70 219 10.0 18.0 0.00 0.00 0.00 60 1011.7